Location: Unnamed
(48.6007°N, 2.4808°E)
Time: 09:00:21
(UTC+01:00)

Envisat - Visible Passes

Search period start: 04 December 2022 00:00
Search period end: 14 December 2022 00:00
Orbit: 763 x 765 km, 98.2° (Epoch: 03 December)

Date Brightness Start Highest point End Pass type
(mag) Time Alt. Az. Time Alt. Az. Time Alt. Az.
04 Dec 5.1 04:44:11 10° NNE 04:45:48 20° NNE 04:45:48 20° NNE visible
04 Dec 4.4 06:23:40 10° N 06:25:58 21° NNW 06:25:58 21° NNW visible
04 Dec 6.0 17:44:45 10° WSW 17:47:07 13° W 17:49:29 10° WNW visible
05 Dec 5.8 04:07:46 10° NE 04:08:12 12° NE 04:08:12 12° NE visible
05 Dec 4.4 05:46:13 10° N 05:48:23 25° N 05:48:23 25° N visible
06 Dec 4.8 05:09:06 10° NNE 05:10:48 21° NNE 05:10:48 21° NNE visible
06 Dec 4.7 06:49:17 10° NNW 06:50:58 15° NW 06:50:58 15° NW visible
07 Dec 5.5 04:32:21 10° NNE 04:33:13 15° NNE 04:33:13 15° NNE visible
07 Dec 4.5 06:11:31 10° N 06:13:24 20° NNW 06:13:24 20° NNW visible
07 Dec 5.8 17:31:47 10° SW 17:34:59 17° W 17:38:13 10° NW visible
08 Dec 4.7 05:34:11 10° N 05:35:50 21° N 05:35:50 21° N visible
08 Dec 4.9 07:15:34 10° NNW 07:16:00 11° NW 07:16:00 11° NW visible
09 Dec 5.2 04:57:11 10° NNE 04:58:16 17° NNE 04:58:16 17° NNE visible
09 Dec 4.7 06:37:01 10° NNW 06:38:27 16° NNW 06:38:27 16° NNW visible
10 Dec 5.8 04:20:33 10° NNE 04:20:43 11° NNE 04:20:43 11° NNE visible
10 Dec 4.7 05:59:25 10° N 06:00:54 19° N 06:00:54 19° N visible
11 Dec 5.0 05:22:11 10° NNE 05:23:21 17° NNE 05:23:21 17° NNE visible
11 Dec 4.9 07:02:54 10° NNW 07:03:31 12° NNW 07:03:31 12° NNW visible
12 Dec 5.5 04:45:17 10° NNE 04:45:48 13° NNE 04:45:48 13° NNE visible
12 Dec 4.8 06:24:49 10° N 06:25:59 15° NNW 06:25:59 15° NNW visible
12 Dec 6.0 17:46:06 10° WSW 17:48:16 13° W 17:50:26 10° WNW visible
13 Dec 5.0 05:47:21 10° N 05:48:27 16° N 05:48:27 16° N visible
